User: anonymous   Login
Location: Nebula Knoll Observatory
(43.6666°N, 71.0000°W)
Time: 05:50:36
(UTC-05:00)
Language:

SeaSat 1 - Orbit

View from above orbital plane
View from above orbital plane
View from above satellite
View from above satellite

Ground track
Ground track

The orbit data is extracted from the following two-line orbital elements,

1 10967U 78064A   16040.80921971  .00000162  00000-0  88069-4 0  9990
2 10967 107.9988 348.7586 0002256 301.7046  58.3878 14.43507850975405
Epoch (UTC): 09 February 2016 19:25:16
Eccentricity: 0.0002256
inclination: 107.9988°
perigee height: 745 km
apogee height: 748 km
right ascension of ascending node: 348.7586°
argument of perigee: 301.7046°
revolutions per day: 14.43507850
mean anomaly at epoch: 58.3878°
orbit number at epoch: 97540

The dashed part of the orbit path shows where the satellite is in the earth's shadow,  

DLR